CW0230 Weather Reports


time (UTC)temp
C
wind
direction
speed
KPH
gust
KPH
rain 1hr
cm
rain 24hr
cm
rain mn
cm
humidity
%
barometer
mb
20260510175004 13 20 8.0 19.3 0.00 0.00 0.00 60 1014.0
20260510174504 13 4 8.0 22.5 0.00 0.00 0.00 61 1014.1
20260510173504 13 6 9.7 19.3 0.00 0.00 0.00 60 1014.2
20260510173004 13 20 8.0 16.1 0.00 0.00 0.00 61 1014.2
20260510172004 13 354 4.8 19.3 0.00 0.00 0.00 61 1014.3
20260510170504 13 18 8.0 19.3 0.00 0.00 0.00 61 1014.3
20260510164504 13 7 11.3 25.7 0.00 0.00 0.00 61 1014.4
20260510164004 13 15 11.3 25.7 0.00 0.00 0.00 61 1014.4
20260510163005 13 358 11.3 27.4 0.00 0.00 0.00 61 1014.5
20260510162504 13 355 12.9 27.4 0.00 0.00 0.00 60 1014.6
20260510161503 14 2 9.7 22.5 0.00 0.00 0.00 62 1014.6
20260510155004 13 22 11.3 22.5 0.00 0.00 0.00 64 1014.8
20260510154504 13 13 11.3 22.5 0.00 0.00 0.00 65 1014.9
20260510153504 13 22 11.3 24.1 0.00 0.00 0.00 66 1014.9
20260510153004 13 11 14.5 24.1 0.00 0.00 0.00 65 1015.0
20260510152504 13 14 9.7 24.1 0.00 0.00 0.00 65 1015.1
20260510152004 13 3 9.7 32.2 0.00 0.00 0.00 65 1015.2
20260510151504 13 13 11.3 32.2 0.00 0.00 0.00 65 1015.1
20260510151004 13 6 9.7 22.5 0.00 0.00 0.00 65 1015.2
20260510145504 14 17 9.7 24.1 0.00 0.00 0.00 65 1015.3
20260510145004 14 2 8.0 27.4 0.00 0.00 0.00 64 1015.3
20260510144004 14 356 12.9 27.4 0.00 0.00 0.00 64 1015.4
20260510143004 15 348 11.3 25.7 0.00 0.00 0.00 64 1015.5
20260510142004 15 359 9.7 24.1 0.00 0.00 0.00 64 1015.5
20260510141504 15 349 11.3 25.7 0.00 0.00 0.00 64 1015.6
20260510141004 15 21 12.9 27.4 0.00 0.00 0.00 64 1015.7
20260510140504 15 338 9.7 27.4 0.00 0.00 0.00 64 1015.7
20260510135005 15 343 11.3 32.2 0.00 0.00 0.00 64 1015.7
20260510134504 15 13 17.7 29.0 0.00 0.00 0.00 62 1015.8
20260510134004 15 346 11.3 25.7 0.00 0.00 0.00 62 1015.8
20260510133504 15 19 11.3 24.1 0.00 0.00 0.00 61 1015.8
20260510132504 15 358 12.9 29.0 0.00 0.00 0.00 61 1015.7
20260510131504 15 12 9.7 24.1 0.00 0.00 0.00 60 1015.7
20260510130004 16 23 14.5 32.2 0.00 0.00 0.00 60 1015.8
20260510125504 16 23 14.5 32.2 0.00 0.00 0.00 57 1015.8
20260510125004 16 17 11.3 32.2 0.00 0.00 0.00 60 1015.8
20260510124504 16 5 14.5 22.5 0.00 0.00 0.00 60 1015.8
20260510122004 16 2 11.3 29.0 0.00 0.00 0.00 61 1015.9
20260510121504 16 5 12.9 29.0 0.00 0.00 0.00 61 1016.0
20260510120504 16 347 11.3 27.4 0.00 0.00 0.00 60 1016.0
20260510115004 15 5 12.9 24.1 0.00 0.00 0.00 60 1016.2
20260510113004 16 7 9.7 25.7 0.00 0.00 0.00 60 1016.3
20260510112504 16 21 9.7 25.7 0.00 0.00 0.00 59 1016.4
20260510111503 15 55 9.7 27.4 0.00 0.00 0.00 61 1016.5
20260510111004 15 68 11.3 27.4 0.00 0.00 0.00 63 1016.6
20260510110504 15 25 9.7 24.1 0.00 0.00 0.00 64 1016.7
20260510105504 15 4 12.9 24.1 0.00 0.00 0.00 64 1016.6
20260510104004 15 34 8.0 20.9 0.00 0.00 0.00 65 1016.7
20260510103504 14 30 11.3 20.9 0.00 0.00 0.00 64 1016.8
20260510103004 14 14 12.9 22.5 0.00 0.00 0.00 64 1016.8
20260510102004 15 10 11.3 22.5 0.00 0.00 0.00 63 1016.9
20260510101004 15 14 12.9 25.7 0.00 0.00 0.00 63 1016.9
20260510100504 15 345 11.3 25.7 0.00 0.00 0.00 63 1016.9
20260510100005 15 17 11.3 25.7 0.00 0.00 0.00 63 1017.0
20260510095504 15 45 11.3 32.2 0.00 0.00 0.00 61 1017.0
20260510094004 15 349 11.3 22.5 0.00 0.00 0.00 62 1016.9
20260510093004 15 12 9.7 32.2 0.00 0.00 0.00 64 1017.1
20260510092004 14 3 9.7 25.7 0.00 0.00 0.00 64 1017.1
20260510090504 13 358 9.7 25.7 0.00 0.00 0.00 67 1017.2
20260510085504 13 10 9.7 20.9 0.00 0.00 0.00 68 1017.4
20260510082004 12 16 9.7 33.8 0.00 0.00 0.00 71 1017.4
20260510081005 12 22 9.7 22.5 0.00 0.00 0.00 70 1017.4
20260510080005 12 356 11.3 25.7 0.00 0.00 0.00 72 1017.4
20260510074004 11 16 14.5 25.7 0.00 0.00 0.00 74 1017.4
20260510073504 11 23 11.3 25.7 0.00 0.00 0.00 74 1017.4
20260510072003 11 3 9.7 19.3 0.00 0.00 0.00 77 1017.3
20260510071504 11 14 9.7 20.9 0.00 0.00 0.00 77 1017.3
20260510070004 10 7 11.3 25.7 0.00 0.00 0.00 78 1017.2
20260510065505 10 39 8.0 22.5 0.00 0.00 0.00 79 1017.2
20260510065004 10 41 9.7 22.5 0.00 0.00 0.00 80 1017.1
20260510063505 10 27 8.0 20.9 0.00 0.00 0.00 80 1017.0
20260510062504 10 11 6.4 14.5 0.00 0.00 0.00 81 1016.9
20260510055504 10 27 6.4 22.5 0.00 0.00 0.00 82 1016.9
20260510055004 9 39 3.2 22.5 0.00 0.00 0.00 83 1016.8
20260510054504 9 10 9.7 14.5 0.00 0.00 0.00 84 1016.9
20260510054004 9 22 8.0 14.5 0.00 0.00 0.00 84 1017.0
20260510053504 9 9 4.8 14.5 0.00 0.00 0.00 84 1017.0
20260510052504 8 16 6.4 19.3 0.00 0.00 0.00 85 1017.0
20260510051504 8 6 4.8 16.1 0.00 0.00 0.00 85 1017.1
20260510051004 8 358 4.8 16.1 0.00 0.00 0.00 85 1017.2
20260510045504 8 12 8.0 19.3 0.00 0.00 0.00 84 1017.1
20260510044004 8 9 8.0 16.1 0.00 0.00 0.00 83 1017.0
20260510042504 8 15 8.0 14.5 0.00 0.00 0.00 81 1017.1
20260510040004 9 353 4.8 11.3 0.00 0.00 0.00 77 1017.2
20260510035503 9 347 3.2 9.7 0.00 0.00 0.00 76 1017.2
20260510035004 9 15 3.2 9.7 0.00 0.00 0.00 75 1017.2
20260510034503 9 354 4.8 14.5 0.00 0.00 0.00 75 1017.1
20260510034004 10 354 4.8 14.5 0.00 0.00 0.00 74 1017.2
20260510030504 10 358 4.8 16.1 0.00 0.00 0.00 71 1017.3
20260510030004 10 1 8.0 16.1 0.00 0.00 0.00 71 1017.3
20260510025504 10 25 4.8 16.1 0.00 0.00 0.00 71 1017.3
20260510024004 11 7 8.0 19.3 0.00 0.00 0.00 70 1017.3
20260510022504 11 10 8.0 19.3 0.00 0.00 0.00 69 1017.2
20260510015004 11 349 6.4 14.5 0.00 0.00 0.00 65 1017.1
20260510013504 11 352 8.0 19.3 0.00 0.00 0.00 63 1017.0
20260510013004 12 348 4.8 16.1 0.00 0.00 0.00 63 1017.0
20260510012504 12 2 6.4 11.3 0.00 0.00 0.00 63 1017.0
20260510011004 12 354 4.8 11.3 0.00 0.00 0.00 64 1017.0
20260510004504 12 357 6.4 19.3 0.00 0.00 0.00 65 1017.0
20260510003505 12 344 8.0 11.3 0.00 0.00 0.00 66 1016.9
20260510003004 12 352 6.4 11.3 0.00 0.00 0.00 66 1016.9
20260510002503 12 349 4.8 11.3 0.00 0.00 0.00 67 1016.9
20260510001004 12 356 4.8 9.7 0.00 0.00 0.00 66 1017.1
20260509235504 13 353 3.2 4.8 0.00 0.00 0.00 66 1017.0
20260509235004 13 347 1.6 8.0 0.00 0.00 0.00 65 1016.9
20260509233504 13 342 4.8 9.7 0.00 0.00 0.00 65 1016.8
20260509233004 13 352 4.8 12.9 0.00 0.00 0.00 65 1016.9
20260509232004 13 353 6.4 12.9 0.00 0.00 0.00 65 1016.8
20260509230504 13 342 4.8 11.3 0.00 0.00 0.00 65 1016.7
20260509225004 13 3 6.4 14.5 0.00 0.00 0.00 65 1016.6
20260509224504 13 356 4.8 9.7 0.00 0.00 0.00 65 1016.6
20260509224004 13 341 3.2 8.0 0.00 0.00 0.00 65 1016.7
20260509223004 14 345 3.2 9.7 0.00 0.00 0.00 64 1016.5
20260509222004 14 5 4.8 11.3 0.00 0.00 0.00 63 1016.4
20260509221503 14 9 4.8 11.3 0.00 0.00 0.00 63 1016.4
20260509221003 14 357 4.8 11.3 0.00 0.00 0.00 63 1016.4
20260509220504 14 0 6.4 11.3 0.00 0.00 0.00 63 1016.4
20260509220004 14 344 3.2 9.7 0.00 0.00 0.00 63 1016.5
20260509215504 14 2 3.2 9.7 0.00 0.00 0.00 63 1016.6
20260509215003 15 337 3.2 11.3 0.00 0.00 0.00 63 1016.6
20260509213504 15 344 3.2 9.7 0.00 0.00 0.00 62 1016.5
20260509213004 15 355 4.8 11.3 0.00 0.00 0.00 62 1016.4
20260509211504 15 336 3.2 11.3 0.00 0.00 0.00 61 1016.1
20260509211004 15 348 4.8 11.3 0.00 0.00 0.00 61 1016.2
20260509210004 16 348 3.2 9.7 0.00 0.00 0.00 60 1016.1
20260509205004 16 344 3.2 8.0 0.00 0.00 0.00 60 1015.9
20260509204504 16 332 4.8 8.0 0.00 0.00 0.00 59 1015.9
20260509203504 16 338 4.8 8.0 0.00 0.00 0.00 59 1015.8
20260509203004 17 345 3.2 8.0 0.00 0.00 0.00 58 1015.8
20260509202503 17 334 3.2 8.0 0.00 0.00 0.00 58 1015.8
20260509201504 17 342 3.2 8.0 0.00 0.00 0.00 57 1015.8
20260509201004 17 340 3.2 8.0 0.00 0.00 0.00 57 1015.8
20260509200005 17 343 4.8 8.0 0.00 0.00 0.00 56 1015.7
20260509194004 18 337 4.8 9.7 0.00 0.00 0.00 55 1015.5
20260509193004 18 345 4.8 9.7 0.00 0.00 0.00 55 1015.4
20260509191504 18 0 3.2 9.7 0.00 0.00 0.00 53 1015.4
20260509190006 19 4 3.2 9.7 0.00 0.00 0.00 53 1015.2
20260509184504 20 355 4.8 12.9 0.00 0.00 0.00 50 1015.2
20260509184004 20 5 4.8 12.9 0.00 0.00 0.00 50 1015.3
20260509183506 20 13 8.0 12.9 0.00 0.00 0.00 49 1015.2
20260509182004 20 6 4.8 11.3 0.00 0.00 0.00 49 1015.2